Flag for U.S.A. Weather past 2 weeks in Vevay, Indiana, U.S.A.

Now
77 °F

Mostly cloudy.


Feels Like: 79 °F
Forecast: 63 / 80 °F
Wind: 9 mph from North

Location: Cincinnati / Northern Kentucky International Airport

Current Time: Jul 23, 2014 at 10:07:38 PM

Latest Report: Jul 23, 2014 at 8:52 PM


Visibility: 8 mi

Pressure: 29.95 "Hg

Humidity: 74%

Dew point: 68 °F

Location of VevayLocation

Historic Weather in Vevay — Graph

°F

Vevay temperature yesterday

Maximum temperature yesterday: 87 °F (at 12:52 PM)
Minimum temperature yesterday: 70 °F (at 6:52 AM)
Average temperature yesterday: 77 °F

Past Weeks' High & Low Weather Summary

 TemperatureHumidityPressure
High89 °F (Jul 13, 1:52 PM)97% (Jul 14, 12:52 AM)30.20 "Hg (Jul 14, 12:52 AM)
Low53 °F (Jul 16, 4:52 AM)34% (Jul 17, 3:52 PM)29.82 "Hg (Jul 14, 4:52 PM)
Average72 °F69%30.03 "Hg
* Reported Jul 8 9:52 PM — Jul 23 8:52 PM, Vevay, Weather by CustomWeather, © 2014

Note: Actual official high and low records may vary slightly from our data, if they occured in-between our weather recording intervals... More about our weather records

Advertising

Vevay weather history for previous 24 hours

 ConditionsComfort  
Time TempWeatherWind HumidityBarometerVisibility
8:52 PM
Jul 23
77 °FMostly cloudy.9 mph74%29.95 "Hg8 mi
7:52 PM79 °FBroken clouds.7 mph74%29.94 "Hg8 mi
6:52 PM81 °FBroken clouds.6 mph69%29.94 "Hg8 mi
5:52 PM81 °FCloudy.8 mph69%29.95 "Hg9 mi
4:52 PM83 °FBroken clouds.8 mph68%29.95 "Hg7 mi
3:52 PM82 °FBroken clouds.7 mph70%29.97 "Hg8 mi
2:52 PM78 °FMostly cloudy.10 mph74%29.97 "Hg8 mi
1:52 PM73 °FMore clouds than sun.8 mph81%29.96 "Hg8 mi
12:52 PM69 °FLight rain. Fog.No wind87%30.06 "Hg3 mi
11:52 AM71 °FLight rain. Fog.15 mph87%30.07 "Hg3 mi
10:52 AM73 °FLight rain. Mostly cloudy.7 mph81%30.02 "Hg7 mi
9:52 AM72 °FLight rain. Mostly cloudy.6 mph84%30.01 "Hg5 mi
8:57 AM73 °FThunderstorms. Overcast.5 mph78%30.09 "Hg9 mi
7:52 AM74 °FLight rain. Overcast.15 mph79%30.05 "Hg6 mi
6:52 AM74 °FPassing clouds.No wind82%30.02 "Hg8 mi
5:52 AM74 °FOvercast.3 mph82%30.01 "Hg9 mi
4:52 AM74 °FPassing clouds.3 mph82%29.99 "Hg10 mi
3:52 AM74 °FPassing clouds.5 mph85%29.98 "Hg10 mi
1:52 AM71 °FClear.No wind87%30.00 "Hg8 mi
12:52 AM75 °FClear.5 mph82%30.01 "Hg10 mi
11:52 PM
Jul 22
73 °FClear.3 mph84%30.01 "Hg10 mi
10:52 PM74 °FClear.No wind82%30.02 "Hg10 mi
Weather by CustomWeather, © 2014

See weather overviewHow to use our weather pages